This demonstration page uses our WeatherBlox Daily Observations layout. Learn more.

Left ArrowRight Arrow

38.20091, -84.87328

Hourly Observations for August 23, 2019

Temp ( °F °C ) Dew Point ( °F °C ) Humidity (%) Winds ( mph kmh ) Pressure ( in mb ) Visibility ( mi km ) Precip ( " mm )
12:53 am 00:53 Cloudy 75 23.9 70 21.1 84 84 Calm 29.96 1014 10 16 0.00 0.00
1:53 am 01:53 Cloudy 75 23.9 69 20.6 82 82 Calm 29.96 1015 10 16 0.00 0.00
2:53 am 02:53 Cloudy with Light Rain 73 22.8 71 21.7 94 94 Calm 29.95 1014 5 8 0.11 2.79
3:53 am 03:53 Clear 72 22.2 70 21.1 94 94 Calm 29.95 1014 7 11 0.00 0.00
4:17 am 04:17 Partly Cloudy with Mist and Fog 72 22.2 71 21.7 97 97 NNW 5 7 29.95 1014 6 10 0.00 0.00
4:30 am 04:30 Mostly Cloudy with Mist and Fog 72 22.2 71 21.7 97 97 N 6 9 29.95 1014 6 10 0.00 0.00
4:48 am 04:48 Mostly Cloudy 72 22 70 21 94 94 Calm 29.96 1014 9 14 0.00 0.00
4:53 am 04:53 Mostly Cloudy 72 22.2 70 21.1 94 94 Calm 29.95 1014 8 13 0.00 0.00
5:25 am 05:25 Mostly Cloudy 72 22.2 71 21.7 97 97 N 3 6 29.96 1015 9 14 0.00 0.00
5:35 am 05:35 Cloudy 73 22.8 71 21.7 94 94 Calm 29.96 1015 10 16 0.00 0.00
5:53 am 05:53 Cloudy 73 22.8 71 21.7 94 94 Calm 29.97 1015 9 14 0.00 0.00
6:40 am 06:40 Cloudy 73 22.8 71 21.7 94 94 NNE 5 7 29.98 1015 8 13 0.00 0.00
6:53 am 06:53 Cloudy 73 22.8 70 21.1 90 90 Calm 29.99 1016 9 14 0.00 0.00
7:20 am 07:20 Cloudy 73 22.8 70 21.1 90 90 N 5 7 30.00 1016 10 16 0.00 0.00
7:38 am 07:38 Cloudy 73 22.8 70 21.1 90 90 N 5 7 30.01 1016 10 16 0.00 0.00
7:53 am 07:53 Cloudy 73 22.8 70 21.1 90 90 VRB 3 6 30.02 1017 10 16 0.00 0.00
8:06 am 08:06 Cloudy with Light Rain 72 22.2 70 21.1 94 94 Calm 30.02 1017 3 4 0.04 1.02
8:14 am 08:14 Cloudy 72 22.2 70 21.1 94 94 NNE 3 6 30.02 1017 10 16 0.04 1.02
8:53 am 08:53 Cloudy with Light Rain 72 22.2 69 20.6 91 91 ENE 8 13 30.04 1017 8 13 0.04 1.02
9:26 am 09:26 Cloudy 70 21.1 67 19.4 90 90 NNE 7 11 30.05 1018 10 16 0.00 0.00
9:53 am 09:53 Cloudy 70 21.1 66 18.9 87 87 NNE 6 9 30.05 1018 10 16 0.00 0.00
10:23 am 10:23 Cloudy 71 21.7 65 18.3 81 81 NNE 7 11 30.07 1018 10 16 0.00 0.00
10:33 am 10:33 Cloudy 70 21.1 65 18.3 84 84 NNE 6 9 30.07 1018 10 16 0.00 0.00
10:53 am 10:53 Cloudy 71 21.7 66 18.9 84 84 NNE 7 11 30.07 1018 10 16 0.00 0.00
11:43 am 11:43 Cloudy 70 21.1 63 17.2 79 79 NE 9 15 30.07 1018 10 16 0.00 0.00
11:53 am 11:53 Cloudy 70 21.1 63 17.2 79 79 NE 7 11 30.08 1019 10 16 0.00 0.00
12:53 pm 12:53 Cloudy 70 21.1 63 17.2 79 79 NNE 7 11 30.08 1019 10 16 0.00 0.00
1:53 pm 13:53 Cloudy with Light Rain 69 20.6 65 18.3 87 87 NNE 5 7 30.08 1019 10 16 0.03 0.76
2:53 pm 14:53 Cloudy with Light Rain 68 20 64 17.8 87 87 NNE 6 9 30.09 1019 6 10 0.04 1.02
3:53 pm 15:53 Cloudy 69 20.6 64 17.8 84 84 NNE 7 11 30.08 1019 10 16 0.01 0.25
4:20 pm 16:20 Cloudy 69 20.6 65 18.3 87 87 NE 6 9 30.07 1018 10 16 0.00 0.00
4:41 pm 16:41 Cloudy 70 21.1 63 17.2 79 79 NE 10 17 30.07 1018 10 16 0.00 0.00
4:53 pm 16:53 Cloudy 69 20.6 62 16.7 78 78 ENE 10 17 30.07 1018 10 16 0.00 0.00
5:53 pm 17:53 Cloudy 70 21.1 60 15.6 71 71 ENE 6 9 30.07 1018 10 16 0.00 0.00
6:53 pm 18:53 Cloudy 70 21.1 60 15.6 71 71 NE 6 9 30.07 1018 10 16 0.00 0.00
7:53 pm 19:53 Cloudy 69 20.6 61 16.1 76 76 ENE 3 6 30.08 1019 10 16 0.00 0.00
8:53 pm 20:53 Cloudy 69 20.6 62 16.7 78 78 NE 3 6 30.08 1019 10 16 0.00 0.00
9:53 pm 21:53 Mostly Cloudy 68 20 62 16.7 81 81 Calm 30.09 1019 10 16 0.00 0.00
10:53 pm 22:53 Cloudy 67 19.4 61 16.1 81 81 NE 5 7 30.12 1020 10 16 0.00 0.00
11:53 pm 23:53 Clear 66 18.9 59 15 78 78 NNE 5 7 30.12 1020 10 16 0.00 0.00

Powered by AerisWeather